West Tisbury, MA

12:33 PM EDT on October 01, 2016 (GMT -0400)
Martha's Vineyard

Weather History for KMVY - April, 2015

Change the Weather History Date:

Thursday, April 9, 2015

  Actual Average Record
Temperature  
Mean Temperature 38 °F -  
Max Temperature 43 °F 50 °F 72 °F (2013)
Min Temperature 35 °F 34 °F 14 °F (1997)
Degree Days  
Heating Degree Days 26    
Moisture  
Dew Point 33 °F    
Average Humidity 82    
Maximum Humidity 86    
Minimum Humidity 73    
Precipitation  
Precipitation 0.08 in - - ()
Sea Level Pressure  
Sea Level Pressure 30.28 in    
Wind  
Wind Speed 20 mph (NE)    
Max Wind Speed 26 mph    
Max Gust Speed 34 mph    
Visibility 4 miles    
Events Rain , Snow    
Averages and records for this station are not official NWS values.
T = Trace of Precipitation, MM = Missing Value Source: NWS Daily Summary

Daily Weather History Graph

Daily Weather History Graph

Search for Another Location

Airport or City:

Trip Planner

Search our weather history database for the weather conditions in past years. The results will help you decide how hot, cold, wet, or windy it might be!

Date:

Astronomy

Apr. 09, 2015 Rise Set
Actual Time 6:12 AM EDT 7:16 PM EDT
Civil Twilight 5:44 AM EDT 7:44 PM EDT
Nautical Twilight 5:10 AM EDT 8:18 PM EDT
Astronomical Twilight 4:35 AM EDT 8:53 PM EDT
Moon No Moon Rise 9:31 AM EDT (4/9)
Length of Visible Light 13h 59m
Length of Day
13h 03m
Waning Gibbous, 76% of the Moon is Illuminated
Apr 9
Waning Gibbous
Apr 11
Last Quarter
Apr 18
New
Apr 25
First Quarter
May 3
Full

Hourly Weather History & Observations

Time (EDT) Temp. Windchill Dew Point Humidity Pressure Visibility Wind Dir Wind Speed Gust Speed Precip Events Conditions
12:08 AM 37.0 °F 25.9 °F 30.9 °F 79% 30.25 in 3.0 mi NE 23.0 mph 33.4 mph 0.01 in Rain Light Rain
12:17 AM 37.0 °F 26.4 °F 30.9 °F 79% 30.25 in 2.5 mi NE 20.7 mph 29.9 mph 0.01 in Rain Light Rain
12:33 AM 37.0 °F 25.9 °F 30.9 °F 79% 30.24 in 3.0 mi ENE 23.0 mph 31.1 mph 0.02 in Rain Light Rain
12:53 AM 37.0 °F 25.4 °F 32.0 °F 82% 30.25 in 3.0 mi NE 25.3 mph 31.1 mph 0.02 in Rain Light Rain
1:53 AM 37.0 °F 25.1 °F 30.9 °F 79% 30.24 in 4.0 mi NE 26.5 mph 34.5 mph 0.02 in Snow Light Snow
2:19 AM 36.0 °F 25.6 °F 30.9 °F 82% 30.24 in 2.5 mi NE 18.4 mph 28.8 mph 0.01 in   Overcast
2:37 AM 36.0 °F 26.3 °F 30.9 °F 82% 30.24 in 3.0 mi NE 16.1 mph 25.3 mph 0.01 in Rain Light Rain
2:53 AM 36.0 °F 24.7 °F 30.9 °F 82% 30.24 in 4.0 mi NE 21.9 mph 32.2 mph 0.01 in   Overcast
3:53 AM 36.0 °F 25.0 °F 30.9 °F 82% 30.22 in 4.0 mi NE 20.7 mph 31.1 mph 0.01 in   Overcast
4:53 AM 35.1 °F 23.8 °F 30.0 °F 82% 30.23 in 3.0 mi NE 20.7 mph 29.9 mph 0.01 in Rain Light Rain
5:53 AM 36.0 °F 25.6 °F 30.9 °F 82% 30.25 in 4.0 mi NE 18.4 mph 32.2 mph 0.00 in   Overcast
6:53 AM 36.0 °F 25.6 °F 30.9 °F 82% 30.26 in 3.0 mi NE 18.4 mph 26.5 mph 0.00 in   Haze
7:53 AM 37.0 °F 27.0 °F 32.0 °F 82% 30.27 in 5.0 mi NE 18.4 mph 29.9 mph 0.01 in   Haze
8:53 AM 37.0 °F 27.0 °F 32.0 °F 82% 30.28 in 5.0 mi NE 18.4 mph 32.2 mph N/A   Haze
9:42 AM 37.9 °F 27.3 °F 33.1 °F 83% 30.29 in 2.5 mi NE 21.9 mph 28.8 mph N/A   Haze
9:53 AM 37.9 °F 27.9 °F 33.1 °F 83% 30.30 in 2.5 mi NE 19.6 mph 27.6 mph N/A   Haze
10:26 AM 39.0 °F 29.3 °F 33.1 °F 79% 30.31 in 3.0 mi NE 19.6 mph 31.1 mph N/A   Haze
10:53 AM 39.0 °F 29.3 °F 34.0 °F 82% 30.31 in 3.0 mi NE 19.6 mph 29.9 mph N/A   Haze
11:21 AM 39.0 °F 28.8 °F 34.0 °F 82% 30.31 in 2.0 mi NE 21.9 mph 31.1 mph N/A   Haze
11:53 AM 39.0 °F 29.3 °F 34.0 °F 82% 30.32 in 3.0 mi NE 19.6 mph 28.8 mph N/A   Haze
12:53 PM 39.9 °F 30.2 °F 34.0 °F 79% 30.31 in 6.0 mi ENE 20.7 mph 26.5 mph N/A   Overcast
1:53 PM 39.9 °F 31.1 °F 35.1 °F 83% 30.30 in 3.0 mi NE 17.3 mph - N/A   Overcast
2:53 PM 42.1 °F 33.9 °F 34.0 °F 73% 30.30 in 7.0 mi NE 17.3 mph 25.3 mph N/A   Overcast
3:53 PM 39.9 °F 30.5 °F 34.0 °F 79% 30.30 in 3.0 mi NNE 19.6 mph 26.5 mph N/A   Haze
4:46 PM 39.9 °F 31.8 °F 35.1 °F 83% 30.30 in 2.5 mi NNE 15.0 mph 24.2 mph N/A   Overcast
4:53 PM 39.9 °F 32.1 °F 35.1 °F 83% 30.30 in 2.5 mi NNE 13.8 mph - N/A   Overcast
5:53 PM 39.0 °F 30.3 °F 34.0 °F 82% 30.29 in 2.0 mi NE 16.1 mph 24.2 mph N/A   Overcast
6:14 PM 39.0 °F 31.4 °F 34.0 °F 82% 30.29 in 2.5 mi NE 12.7 mph - N/A   Overcast
6:30 PM 39.0 °F 31.0 °F 34.0 °F 82% 30.30 in 3.0 mi NE 13.8 mph 23.0 mph N/A   Overcast
6:42 PM 39.0 °F 31.0 °F 34.0 °F 82% 30.30 in 4.0 mi NE 13.8 mph - N/A   Overcast
6:53 PM 39.0 °F 31.0 °F 33.1 °F 79% 30.31 in 6.0 mi NE 13.8 mph 25.3 mph N/A   Overcast
7:53 PM 39.0 °F 30.6 °F 33.1 °F 79% 30.30 in 4.0 mi ENE 15.0 mph - N/A   Overcast
8:53 PM 37.9 °F 28.5 °F 33.1 °F 83% 30.30 in 4.0 mi ENE 17.3 mph - N/A   Overcast
9:53 PM 37.9 °F 30.0 °F 34.0 °F 86% 30.30 in 5.0 mi ENE 12.7 mph 23.0 mph N/A   Overcast
10:41 PM 37.9 °F 30.0 °F 34.0 °F 86% 30.30 in 3.0 mi NE 12.7 mph - N/A   Overcast
10:53 PM 37.9 °F 29.6 °F 34.0 °F 86% 30.29 in 3.0 mi NE 13.8 mph - N/A   Overcast
11:53 PM 37.9 °F 29.6 °F 34.0 °F 86% 30.27 in 3.0 mi NE 13.8 mph - N/A   Overcast